SCP
0 0 0 0 0 0 0 0 0 0 1 1 1 1 1 1 1 1 2 2 2 2 1 1 1 1 0 0 0 0 0 0 0 0 0 0 0 0 0 0 0 0 0
0 0 0 0 0 0 0 0 0 0 0 1 1 1 1 1 1 1 1 1 1 1 1 1 1 1 0 0 0 0 0 0 0 0 0 0 0 0 0 0 0 0 0
0 0 0 0 0 0 0 0 0 0 0 0 1 1 1 1 1 0 0 1 1 1 1 1 1 1 0 0 0 0 0 0 0 0 0 0 0 0 0 0 0 0 0
0 0 0 0 0 0 0 0 0 0 0 1 1 1 1 1 1 0 0 0 0 1 1 1 1 0 0 0 0 0 0 0 0 0 0 0 0 0 0 0 0 0 0
0 0 0 0 0 0 0 0 0 0 1 1 1 1 1 1 0 0 0 0 0 0 0 0 0 0 0 0 0 0 0 0 0 0 0 0 0 0 0 0 0 0 0
0 0 0 0 0 0 0 0 0 1 1 1 1 1 1 1 0 0 0 0 0 0 0 0 0 0 0 0 0 0 0 0 0 0 0 0 0 0 0 0 0 0 0
0 0 0 0 0 0 0 0 0 0 1 1 1 1 1 0 0 0 0 0 0 0 0 0 0 0 0 0 0 0 0 0 0 0 0 0 0 0 0 0 0 0 0
0 0 0 0 0 0 0 0 0 0 0 0 1 1 1 0 0 0 0 0 0 0 0 0 0 0 0 0 0 0 0 0 0 0 0 0 0 0 0 0 0 0 0
0 0 0 0 0 0 0 0 0 0 0 0 0 1 1 0 0 0 0 0 0 0 0 0 0 0 0 0 0 0 0 0 0 0 0 0 0 0 0 0 0 0 0
0 0 0 0 0 0 0 0 0 0 0 0 0 1 1 0 0 0 0 0 0 0 0 0 0 0 0 0 0 0 0 0 0 0 0 0 0 0 0 0 0 0 0
0 0 0 0 0 0 0 0 0 0 0 0 0 0 0 0 0 0 0 0 0 0 0 0 0 0 0 0 0 0 0 0 0 0 0 0 0 0 0 0 0 0 0
0 0 0 0 0 0 0 0 0 0 0 0 0 0 0 0 0 0 0 0 0 0 0 0 0 0 0 0 0 0 0 0 0 0 0 0 0 0 0 0 0 0 0
0 0 0 0 0 0 0 0 0 0 0 0 0 0 0 0 0 0 0 0 0 0 0 0 0 0 0 0 0 0 0 0 0 0 0 0 0 0 0 0 0 0 0
0 0 0 0 0 0 0 0 0 0 0 0 0 0 0 0 0 0 0 0 0 0 0 0 0 0 0 0 0 0 0 0 0 0 0 0 0 0 0 0 0 0 0
0 0 0 0 0 0 0 0 0 0 0 0 0 0 0 0 0 0 0 0 0 0 0 0 0 0 0 0 0 0 0 0 0 0 0 0 0 0 0 0 0 0 0
0 0 0 0 0 0 0 0 0 0 0 0 0 0 0 0 0 0 0 0 0 0 0 0 0 0 0 0 0 0 0 0 0 0 0 0 0 0 0 0 0 0 0
0 0 0 0 0 0 0 0 0 0 0 0 0 0 0 0 0 0 0 0 0 0 0 0 0 0 0 0 0 0 0 0 0 0 0 0 0 0 0 0 0 0 0
0 0 0 0 0 0 0 0 0 0 0 0 0 0 0 0 0 0 0 0 0 0 0 0 0 0 0 0 0 0 0 0 0 0 0 0 0 0 0 0 0 0 0
0 0 0 0 0 0 0 0 0 0 0 0 0 0 0 0 0 0 0 0 0 0 0 0 0 0 0 0 0 0 0 0 0 0 0 0 0 0 0 0 0 0 0
0 0 0 0 0 0 0 0 0 0 0 0 0 0 0 0 0 0 0 0 0 0 0 0 0 0 0 0 0 0 0 0 0 0 0 0 0 0 0 0 0 0 0
0 0 0 0 0 0 0 0 0 0 0 0 0 0 0 0 0 0 0 0 0 0 0 0 0 0 0 0 0 0 0 0 0 0 0 0 0 0 0 0 0 0 0
0 0 0 0 0 0 0 0 0 0 0 0 0 0 0 0 0 0 0 0 0 0 0 0 0 0 0 0 0 0 0 0 0 0 0 0 0 0 0 0 0 0 0
0 0 0 0 0 0 0 0 0 0 0 0 0 0 0 0 0 0 0 0 0 0 0 0 0 0 0 0 0 0 0 0 0 0 0 0 0 0 0 0 0 0 0
0 0 0 0 0 0 0 0 0 0 0 0 0 0 0 0 0 0 0 0 0 0 0 0 0 0 0 0 0 0 0 0 0 0 0 0 0 0 0 0 0 0 0
0 0 0 0 0 0 0 0 0 0 0 0 0 0 0 0 0 0 0 0 0 0 0 0 0 0 0 0 0 0 0 0 0 0 0 0 0 0 0 0 0 0 0
0 0 0 0 0 0 0 0 0 0 0 0 0 0 0 0 0 0 0 0 0 0 0 0 0 0 0 0 0 0 0 0 0 0 0 0 0 0 0 0 0 0 0
Wind_Speed
4 4 5 5 5 5 5 6 6 7 7 7 7 7 7 7 6 6 6 6 7 6 6 6 6 5 4 4 4 4 4 4 5 4 2 2 3 3 3 3 3 4 4
5 5 5 5 5 5 6 6 6 7 7 7 7 7 7 7 7 7 7 7 8 8 8 7 7 5 6 5 4 5 5 5 5 5 4 3 4 4 4 4 3 3 3
4 5 5 5 5 6 6 6 6 6 6 6 7 7 7 7 7 7 8 8 8 8 8 8 8 7 7 6 6 5 4 4 4 5 5 3 3 3 4 3 4 3 3
4 5 5 6 6 6 6 5 5 6 6 6 6 7 7 7 7 7 8 8 8 8 8 8 8 8 8 7 6 6 5 5 5 5 4 4 3 3 3 3 3 3 3
4 5 5 5 5 5 5 5 5 5 5 5 5 6 6 6 6 7 7 8 8 8 8 8 8 9 10 8 6 6 6 5 5 5 5 4 4 3 4 3 4 3 3
5 5 5 4 4 4 4 4 4 4 4 4 5 5 6 6 8 9 8 7 7 8 8 8 8 8 10 11 11 11 9 8 7 6 6 6 6 5 4 4 4 4 4
5 4 4 4 4 4 4 3 4 4 4 4 5 5 6 7 8 9 10 7 7 7 8 7 6 6 8 7 9 10 11 11 11 8 8 8 8 6 6 6 6 6 5
4 4 4 4 4 3 3 3 4 4 4 4 5 5 6 6 7 7 8 7 6 7 7 8 8 7 7 8 7 7 8 8 9 9 8 8 7 7 7 7 6 5 4
4 4 4 4 3 3 3 4 4 3 4 4 4 5 5 5 6 7 7 5 5 6 7 7 8 8 9 10 8 7 7 7 8 10 10 10 10 10 7 4 5 5 5
5 5 5 4 3 4 4 4 4 3 4 4 4 4 5 5 5 6 6 4 4 5 5 6 9 9 9 10 8 7 8 7 6 6 7 8 8 8 9 8 7 6 5
5 5 4 4 4 4 4 3 3 3 3 3 3 3 4 4 5 6 6 4 4 4 4 4 5 8 10 10 9 7 8 7 5 6 5 5 5 5 6 6 6 6 6
4 4 4 4 4 3 3 3 3 3 3 3 3 3 3 3 4 5 6 6 5 4 4 4 5 8 9 9 7 7 9 7 4 5 5 5 4 4 4 4 4 4 5
4 4 4 4 3 3 3 3 3 3 3 2 2 3 3 2 3 5 6 6 7 5 4 5 6 7 7 6 7 8 6 4 4 5 5 5 4 4 3 2 2 2 3
4 4 4 4 3 3 3 3 2 2 3 3 3 3 3 3 3 3 3 3 5 5 4 5 6 6 5 5 5 5 4 4 4 4 4 3 3 3 3 3 3 2 2
4 4 4 3 3 3 3 2 3 3 3 3 3 3 3 3 4 5 4 3 3 3 3 2 3 3 3 3 3 3 3 3 4 3 3 3 3 3 3 2 3 3 3
4 4 3 3 3 3 2 2 3 4 4 5 4 4 4 4 5 5 5 5 4 4 3 3 3 3 3 3 3 3 3 4 4 3 3 3 3 3 3 3 3 3 4
4 4 3 3 2 2 2 2 3 3 4 4 4 4 4 4 4 4 4 4 3 2 2 2 3 3 3 3 3 3 3 3 3 3 3 3 3 3 3 3 3 3 4
4 4 4 3 2 2 2 2 2 3 3 2 4 5 5 4 4 4 4 2 2 2 2 2 2 2 2 3 3 3 3 3 3 3 3 3 4 4 4 4 4 4 4
3 3 2 2 2 2 2 2 2 3 2 2 2 3 4 4 4 3 2 1 1 2 2 2 3 3 3 3 3 3 3 3 3 3 3 4 4 4 4 4 4 5 4
2 4 3 2 2 2 2 2 2 2 2 2 2 3 3 2 2 2 1 2 2 2 2 2 3 3 3 3 3 2 2 3 3 3 3 3 3 3 4 4 4 4 3
2 3 3 2 2 2 2 2 2 2 2 2 3 3 4 2 2 2 2 2 2 2 3 3 3 3 2 2 2 2 3 2 3 3 3 3 3 3 3 3 3 3 3
2 2 2 2 2 2 2 2 2 2 2 3 3 3 4 2 2 2 2 2 3 3 3 3 3 3 3 3 2 2 2 2 2 2 2 2 3 3 3 3 3 3 3
2 2 2 2 2 2 2 2 2 2 2 2 2 2 2 2 2 2 2 3 3 3 3 2 3 2 2 2 2 2 2 3 3 2 2 3 3 3 3 3 4 4 4
2 2 2 2 2 2 2 2 2 2 2 2 2 2 2 2 2 3 3 3 3 3 2 2 2 3 3 3 2 2 2 2 2 2 3 3 3 2 3 3 4 4 4
1 2 2 2 2 2 2 2 2 2 2 2 2 2 2 2 3 3 3 3 3 3 3 3 2 2 3 3 3 3 3 4 4 2 2 2 2 3 3 3 3 3 3
1 1 1 2 2 2 2 2 2 2 2 2 2 2 2 2 3 3 3 2 2 2 3 3 3 3 3 3 4 4 4 5 5 5 2 2 2 3 3 3 3 3 3
Wind_Direction
273 266 257 253 249 246 239 237 234 233 230 228 223 222 222 222 221 221 224 225 221 222 223 225 228 229 228 231 230 225 225 223 240 254 266 256 239 234 233 235 232 230 222
280 270 261 258 251 247 245 244 237 234 231 231 226 222 221 221 222 223 226 228 223 222 222 224 227 225 228 229 232 226 225 223 230 246 252 249 249 237 235 233 233 236 233
282 272 265 261 255 251 251 248 242 235 232 230 227 223 221 221 223 225 227 229 226 226 226 226 227 225 228 227 227 227 228 229 228 235 247 249 254 239 232 232 235 235 238
283 273 264 260 257 255 254 251 246 238 232 231 230 229 226 224 224 225 228 228 228 230 230 231 230 228 229 229 225 229 228 224 223 228 237 240 242 241 233 228 237 236 244
279 273 267 264 260 257 254 252 248 246 240 236 234 234 231 227 224 224 228 229 228 230 231 232 233 233 235 231 227 226 224 222 221 223 229 237 236 227 230 232 241 253 256
279 275 272 266 260 256 255 254 251 250 248 244 239 238 238 234 228 229 233 233 231 230 233 235 235 234 233 232 233 233 231 224 223 224 229 232 237 238 239 233 235 245 252
288 284 277 266 260 260 259 255 251 253 250 249 249 244 245 243 236 232 232 237 237 235 234 235 236 231 231 231 234 237 237 238 238 234 235 235 236 232 231 234 236 241 251
297 299 292 283 273 269 261 255 258 257 252 253 252 252 250 248 243 240 235 237 239 235 234 232 233 232 229 231 234 236 237 236 238 237 240 242 242 239 231 235 240 250 266
304 303 300 291 281 276 270 266 265 259 257 256 256 252 249 251 246 244 242 238 238 241 237 234 232 233 232 231 232 235 241 246 249 247 248 250 250 242 234 225 221 226 246
307 306 305 295 282 275 271 270 267 259 257 258 259 256 252 254 251 248 245 240 240 244 241 235 234 237 236 232 229 229 238 242 240 242 248 250 247 238 229 221 218 224 237
311 309 304 299 288 279 274 269 266 261 261 260 263 266 262 259 257 249 247 246 241 245 244 241 238 240 245 243 238 235 242 247 242 238 240 242 240 234 229 226 225 227 233
313 309 305 302 296 287 280 275 269 264 258 262 268 275 274 268 263 252 246 250 255 249 249 248 246 247 248 248 246 244 248 247 241 235 236 236 236 237 235 235 235 243 247
311 308 307 305 298 288 277 272 267 258 253 257 260 266 275 277 272 270 259 256 261 259 254 254 257 253 254 249 246 246 245 241 235 234 235 238 239 239 236 234 234 238 255
305 307 307 303 301 293 278 266 258 253 253 254 254 260 268 269 270 270 266 258 254 258 260 251 251 254 251 252 246 241 238 238 238 240 241 242 234 225 227 226 229 224 246
302 301 300 297 295 293 284 278 270 264 257 257 261 265 265 265 270 277 278 270 257 247 259 254 248 243 235 235 236 235 234 235 238 241 238 236 230 227 229 223 227 234 240
299 303 302 302 299 297 298 302 299 290 292 280 282 282 281 288 300 283 279 284 277 263 244 246 248 242 240 237 236 236 236 234 235 235 227 225 230 230 232 228 224 231 239
290 295 295 293 294 297 296 297 305 315 315 315 312 309 310 316 313 304 288 280 277 246 236 246 255 257 250 244 241 238 240 239 231 225 225 226 228 229 225 225 225 231 238
289 292 292 289 292 293 290 290 293 298 304 308 316 321 322 323 321 321 310 289 277 262 258 257 263 267 268 259 250 247 247 239 228 228 232 230 226 227 227 227 228 232 239
290 291 290 288 289 289 288 288 292 297 299 305 317 320 321 319 321 330 325 287 268 265 269 268 267 263 261 259 261 261 253 244 238 234 233 231 224 224 228 229 234 235 243
289 295 293 286 285 285 283 284 288 293 298 303 309 316 317 316 310 316 307 292 278 275 274 274 275 273 268 263 261 259 258 252 238 234 231 229 224 222 225 227 229 233 241
289 290 288 281 276 278 278 279 282 285 290 295 301 312 322 302 295 292 287 285 283 279 278 277 276 277 274 271 262 255 255 254 245 244 238 228 220 217 220 223 228 232 236
279 280 273 269 273 274 277 277 275 277 283 289 298 307 312 304 293 288 287 287 285 282 280 276 274 274 276 275 268 258 251 254 253 241 237 231 220 212 213 217 221 226 224
274 274 267 264 267 271 276 275 275 278 282 286 292 298 299 295 294 292 291 291 290 290 289 281 278 282 288 287 282 268 257 254 254 244 230 223 220 212 210 213 214 218 222
269 264 263 266 266 260 260 268 271 274 279 282 285 287 289 289 288 293 296 296 295 294 293 289 284 288 293 293 289 287 281 278 275 253 233 222 220 213 212 212 217 215 219
272 272 273 272 268 262 261 264 267 270 272 276 280 283 285 287 290 294 295 296 297 296 298 295 288 287 288 289 289 288 285 282 278 269 238 218 216 211 207 209 209 210 214
295 288 281 276 269 264 264 267 270 274 276 279 280 281 284 287 290 293 295 296 297 296 296 294 291 288 288 285 282 282 283 281 277 273 258 222 207 206 205 207 205 209 211